CW7427 Weather Reports


time (UTC)temp
C
wind
direction
speed
KPH
gust
KPH
rain 1hr
cm
rain 24hr
cm
rain mn
cm
humidity
%
barometer
mb
20260510022351 21 65 0.0 1.6 0.00 0.00 0.00 60 1026.6
20260510021846 21 65 0.0 4.8 0.00 0.00 0.00 59 1026.7
20260510021335 21 65 0.0 4.8 0.00 0.00 0.00 60 1026.8
20260510020827 20 65 0.0 0.0 0.00 0.00 0.00 63 1026.8
20260510020319 20 65 0.0 1.6 0.00 0.00 0.00 61 1027.0
20260510015814 20 65 0.0 3.2 0.00 0.00 0.00 62 1027.0
20260510015306 20 66 0.0 9.7 0.00 0.00 0.00 61 1027.0
20260510014757 21 66 0.0 9.7 0.00 0.00 0.00 61 1027.1
20260510014244 20 59 0.0 3.2 0.00 0.00 0.00 63 1027.2
20260510013744 20 59 0.0 3.2 0.00 0.00 0.00 63 1027.1
20260510013459 20 59 0.0 3.2 0.00 0.00 0.00 61 1027.2
20260510012736 20 59 0.0 3.2 0.00 0.00 0.00 63 1027.3
20260510012228 20 59 0.0 1.6 0.00 0.00 0.00 64 1027.3
20260510011717 20 59 0.0 3.2 0.00 0.00 0.00 64 1027.4
20260510011205 20 59 0.0 3.2 0.00 0.00 0.00 62 1027.5
20260510010635 20 59 0.0 1.6 0.00 0.00 0.00 66 1027.5
20260510010121 19 59 0.0 3.2 0.00 0.00 0.00 63 1027.6
20260510005607 19 59 0.0 3.2 0.00 0.00 0.00 65 1027.7
20260510005102 19 59 0.0 0.0 0.00 0.00 0.00 65 1027.7
20260510004603 19 59 0.0 0.0 0.00 0.00 0.00 65 1027.8
20260510004059 19 59 0.0 1.6 0.00 0.00 0.00 65 1027.8
20260510003825 19 59 0.0 1.6 0.00 0.00 0.00 67 1027.8
20260510003058 18 59 0.0 3.2 0.00 0.00 0.00 67 1027.8
20260510002559 18 59 0.0 3.2 0.00 0.00 0.00 67 1027.8
20260510002054 18 59 0.0 0.0 0.00 0.00 0.00 68 1027.7
20260510001821 18 59 0.0 0.0 0.00 0.00 0.00 68 1027.6
20260510001043 18 59 0.0 0.0 0.00 0.00 0.00 69 1027.6
20260510000527 17 59 0.0 1.6 0.00 0.00 0.00 71 1027.5
20260510000014 17 59 0.0 1.6 0.00 0.00 0.00 71 1027.5
20260509235714 16 59 0.0 1.6 0.00 0.00 0.00 74 1027.4
20260509234942 16 59 0.0 0.0 0.00 0.00 0.00 73 1027.5
20260509234437 16 59 0.0 0.0 0.00 0.00 0.00 73 1027.5
20260509233935 16 59 0.0 0.0 0.00 0.00 0.00 74 1027.5
20260509233655 16 73 0.0 0.0 0.00 0.00 0.00 73 1027.4
20260509232907 16 73 0.0 0.0 0.00 0.00 0.00 75 1027.4
20260509232401 16 73 0.0 0.0 0.00 0.00 0.00 76 1027.3
20260509231854 16 73 0.0 0.0 0.00 0.00 0.00 77 1027.3
20260509231346 15 73 0.0 0.0 0.00 0.00 0.00 77 1027.3
20260509230834 15 73 0.0 0.0 0.00 0.00 0.00 79 1027.3
20260509230318 15 73 0.0 0.0 0.00 0.00 0.00 80 1027.3
20260509225812 15 73 0.0 0.0 0.00 0.00 0.00 79 1027.4
20260509225305 15 73 0.0 0.0 0.00 0.00 0.00 80 1027.4
20260509224753 14 73 0.0 0.0 0.00 0.00 0.00 82 1027.4
20260509224500 14 73 0.0 0.0 0.00 0.00 0.00 83 1027.3
20260509223738 13 73 0.0 0.0 0.00 0.00 0.00 85 1027.2
20260509223452 13 73 0.0 0.0 0.00 0.00 0.00 87 1027.3
20260509222728 13 73 0.0 1.6 0.00 0.00 0.00 88 1027.2
20260509222226 13 73 0.0 1.6 0.00 0.00 0.00 89 1027.2
20260509221938 12 110 0.0 0.0 0.00 0.00 0.00 90 1027.2
20260509221216 12 110 0.0 0.0 0.00 0.00 0.00 90 1027.1
20260509220701 12 110 0.0 0.0 0.00 0.00 0.00 92 1027.0
20260509220144 11 110 0.0 0.0 0.00 0.00 0.00 93 1027.0
20260509215641 11 110 0.0 0.0 0.00 0.00 0.00 93 1026.9
20260509215354 11 110 0.0 0.0 0.00 0.00 0.00 93 1026.9
20260509214643 11 0.0 0.0 0.00 0.00 0.00 94 1026.9
20260509214132 -17 0.0 0.0 0.00 0.00 0.00 1040.7
20260509213633 -17 0.0 0.0 0.00 0.00 0.00 1040.6
20260509213301 -17 0.0 0.0 0.00 0.00 0.00 1040.5
20260509212800 -17 0.0 0.0 0.00 0.00 0.00 1040.5
20260509212040 -17 0.0 0.0 0.00 0.00 0.00 1040.3
20260509211538 -17 0.0 0.0 0.00 0.00 0.00 1040.3
20260509210939 -17 0.0 0.0 0.00 0.00 0.00 1040.3
20260509210434 -17 0.0 0.0 0.00 0.00 0.00 1040.2
20260509205933 -17 0.0 0.0 0.00 0.00 0.00 1040.1
20260509205430 -17 0.0 0.0 0.00 0.00 0.00 1040.1
20260509204928 -17 0.0 0.0 0.00 0.00 0.00 1040.0
20260509204334 8 110 0.0 0.0 0.00 0.00 0.00 93 1039.9
20260509203812 8 110 0.0 0.0 0.00 0.00 0.00 93 1025.8
20260509203258 8 110 0.0 0.0 0.00 0.00 0.00 93 1025.8
20260509203011 8 110 0.0 0.0 0.00 0.00 0.00 93 1025.8
20260509202501 8 110 0.0 0.0 0.00 0.00 0.00 93 1025.6
20260509201731 8 110 0.0 0.0 0.00 0.00 0.00 93 1025.6
20260509201233 8 110 0.0 0.0 0.00 0.00 0.00 93 1025.5
20260509200945 8 110 0.0 0.0 0.00 0.00 0.00 93 1025.4
20260509200214 8 110 0.0 0.0 0.00 0.00 0.00 93 1025.4
20260509195704 8 110 0.0 0.0 0.00 0.00 0.00 93 1025.4
20260509195411 8 110 0.0 0.0 0.00 0.00 0.00 93 1025.2
20260509194638 8 110 0.0 0.0 0.00 0.00 0.00 93 1025.2
20260509194136 8 110 0.0 0.0 0.00 0.00 0.00 93 1025.1
20260509193632 8 110 0.0 0.0 0.00 0.00 0.00 92 1025.0
20260509193622 8 110 0.0 0.0 0.00 0.00 0.00 92 1024.9
20260509192628 8 110 0.0 0.0 0.00 0.00 0.00 92 1024.9
20260509192110 8 110 0.0 0.0 0.00 0.00 0.00 92 1024.8
20260509191610 8 110 0.0 0.0 0.00 0.00 0.00 92 1024.8
20260509191058 8 110 0.0 0.0 0.00 0.00 0.00 92 1024.7
20260509190537 9 110 0.0 0.0 0.00 0.00 0.00 92 1024.7
20260509190033 9 110 0.0 0.0 0.00 0.00 0.00 93 1024.6
20260509185521 9 110 0.0 0.0 0.00 0.00 0.00 93 1024.6
20260509185012 9 110 0.0 0.0 0.00 0.00 0.00 93 1024.5
20260509184511 9 110 0.0 0.0 0.00 0.00 0.00 93 1024.4
20260509184009 9 110 0.0 0.0 0.00 0.00 0.00 93 1024.4
20260509183439 9 110 0.0 0.0 0.00 0.00 0.00 93 1024.4
20260509182932 9 110 0.0 0.0 0.00 0.00 0.00 93 1024.4
20260509182629 9 110 0.0 0.0 0.00 0.00 0.00 93 1024.4
20260509181908 9 110 0.0 0.0 0.00 0.00 0.00 93 1024.3
20260509181344 9 110 0.0 0.0 0.00 0.00 0.00 93 1024.3
20260509180824 9 110 0.0 0.0 0.00 0.00 0.00 92 1024.3
20260509180316 9 110 0.0 0.0 0.00 0.00 0.00 92 1024.3
20260509175809 9 110 0.0 0.0 0.00 0.00 0.00 92 1024.2
20260509175247 9 110 0.0 0.0 0.00 0.00 0.00 92 1024.2
20260509174735 9 110 0.0 0.0 0.00 0.00 0.00 92 1024.1
20260509174212 9 110 0.0 0.0 0.00 0.00 0.00 92 1024.2
20260509173631 9 110 0.0 0.0 0.00 0.00 0.00 93 1024.1
20260509173125 9 110 0.0 0.0 0.00 0.00 0.00 93 1024.2
20260509172605 9 110 0.0 0.0 0.00 0.00 0.00 93 1024.2
20260509172306 9 110 0.0 0.0 0.00 0.00 0.00 93 1024.2
20260509171543 9 110 0.0 0.0 0.00 0.00 0.00 92 1024.1
20260509171046 9 110 0.0 0.0 0.00 0.00 0.00 93 1024.0
20260509170539 9 110 0.0 0.0 0.00 0.00 0.00 92 1023.9
20260509170034 9 110 0.0 0.0 0.00 0.00 0.00 92 1024.1
20260509165529 9 110 0.0 0.0 0.00 0.00 0.00 92 1024.1
20260509165027 10 110 0.0 0.0 0.00 0.00 0.00 92 1024.1
20260509164527 10 110 0.0 0.0 0.00 0.00 0.00 92 1024.0
20260509163952 10 110 0.0 0.0 0.00 0.00 0.00 92 1024.1
20260509163700 10 110 0.0 0.0 0.00 0.00 0.00 92 1024.0
20260509163206 10 110 0.0 0.0 0.00 0.00 0.00 92 1024.0
20260509162707 10 110 0.0 0.0 0.00 0.00 0.00 92 1024.1
20260509161935 10 110 0.0 0.0 0.00 0.00 0.00 92 1024.0
20260509161433 10 110 0.0 0.0 0.00 0.00 0.00 92 1024.0
20260509160924 10 110 0.0 0.0 0.00 0.00 0.00 92 1024.1
20260509160423 10 110 0.0 0.0 0.00 0.00 0.00 92 1024.1
20260509155852 10 110 0.0 0.0 0.00 0.00 0.00 92 1024.1
20260509155306 10 110 0.0 0.0 0.00 0.00 0.00 92 1024.1
20260509154745 10 110 0.0 0.0 0.00 0.00 0.00 92 1024.1
20260509154233 10 110 0.0 0.0 0.00 0.00 0.00 92 1024.1
20260509154007 10 110 0.0 0.0 0.00 0.00 0.00 92 1024.2
20260509153221 10 110 0.0 0.0 0.00 0.00 0.00 92 1024.3
20260509152711 10 110 0.0 0.0 0.00 0.00 0.00 92 1024.2
20260509152211 10 110 0.0 0.0 0.00 0.00 0.00 92 1024.3
20260509151931 10 110 0.0 0.0 0.00 0.00 0.00 91 1024.3
20260509151141 10 110 0.0 0.0 0.00 0.00 0.00 91 1024.3
20260509150639 10 110 0.0 0.0 0.00 0.00 0.00 91 1024.3
20260509150135 10 110 0.0 0.0 0.00 0.00 0.00 91 1024.1
20260509145632 10 110 0.0 0.0 0.00 0.00 0.00 91 1024.1
20260509145131 10 110 0.0 0.0 0.00 0.00 0.00 91 1024.2
20260509144559 10 110 0.0 0.0 0.00 0.00 0.00 91 1024.1
20260509144035 10 110 0.0 0.0 0.00 0.00 0.00 91 1024.1
20260509143535 10 110 0.0 0.0 0.00 0.00 0.00 91 1024.1
20260509143025 10 110 0.0 0.0 0.00 0.00 0.00 91 1024.0
20260509142507 10 110 0.0 0.0 0.00 0.00 0.00 91 1024.0
20260509141957 10 110 0.0 0.0 0.00 0.00 0.00 91 1024.0
20260509141435 10 110 0.0 0.0 0.00 0.00 0.00 91 1024.0
20260509140936 10 110 0.0 0.0 0.00 0.00 0.00 91 1024.0
20260509140423 10 110 0.0 0.0 0.00 0.00 0.00 91 1024.0
20260509135903 10 110 0.0 0.0 0.00 0.00 0.00 91 1024.1
20260509135357 10 110 0.0 0.0 0.00 0.00 0.00 91 1024.0
20260509134857 10 110 0.0 0.0 0.00 0.00 0.00 91 1024.0
20260509134348 10 110 0.0 0.0 0.00 0.00 0.00 91 1024.1
20260509133849 10 110 0.0 0.0 0.00 0.00 0.00 91 1024.1
20260509133321 10 110 0.0 0.0 0.00 0.00 0.00 90 1024.1
20260509133043 11 110 0.0 0.0 0.00 0.00 0.00 90 1024.1
20260509132306 11 110 0.0 0.0 0.00 0.00 0.00 90 1024.1
20260509132015 11 110 0.0 0.0 0.00 0.00 0.00 91 1024.1
20260509131253 11 110 0.0 0.0 0.00 0.00 0.00 91 1024.1
20260509130753 11 110 0.0 0.0 0.00 0.00 0.00 91 1024.1
20260509130735 10 110 0.0 0.0 0.00 0.00 0.00 90 1024.1
20260509125735 11 110 0.0 0.0 0.00 0.00 0.00 90 1024.1
20260509125224 11 110 0.0 0.0 0.00 0.00 0.00 90 1024.1
20260509124716 11 110 0.0 0.0 0.00 0.00 0.00 90 1024.1
20260509124144 11 110 0.0 0.0 0.00 0.00 0.00 90 1024.2
20260509123902 11 110 0.0 0.0 0.00 0.00 0.00 90 1024.1
20260509123116 11 110 0.0 0.0 0.00 0.00 0.00 90 1024.2
20260509122838 11 110 0.0 0.0 0.00 0.00 0.00 89 1024.1
20260509122052 11 110 0.0 0.0 0.00 0.00 0.00 90 1024.2
20260509121540 11 110 0.0 0.0 0.00 0.00 0.00 89 1024.2
20260509121033 11 110 0.0 0.0 0.00 0.00 0.00 89 1024.1
20260509120515 11 110 0.0 0.0 0.00 0.00 0.00 89 1024.3
20260509120021 11 110 0.0 0.0 0.00 0.00 0.00 89 1024.4
20260509115443 11 110 0.0 0.0 0.00 0.00 0.00 89 1024.4
20260509114936 11 110 0.0 0.0 0.00 0.00 0.00 88 1024.3
20260509114430 11 110 0.0 0.0 0.00 0.00 0.00 88 1024.3
20260509113927 11 110 0.0 0.0 0.00 0.00 0.00 87 1024.3
20260509113427 12 110 0.0 0.0 0.00 0.00 0.00 88 1024.3
20260509112919 12 110 0.0 0.0 0.00 0.00 0.00 87 1024.2
20260509112408 12 110 0.0 0.0 0.00 0.00 0.00 87 1024.2
20260509111905 12 110 0.0 0.0 0.00 0.00 0.00 87 1024.2
20260509111337 12 110 0.0 0.0 0.00 0.00 0.00 87 1024.2
20260509110837 12 110 0.0 0.0 0.00 0.00 0.00 87 1024.2
20260509110326 12 110 0.0 0.0 0.00 0.00 0.00 87 1024.2
20260509105821 12 110 0.0 0.0 0.00 0.00 0.00 87 1024.1
20260509105238 12 110 0.0 0.0 0.00 0.00 0.00 87 1024.0
20260509104737 12 110 0.0 0.0 0.00 0.00 0.00 87 1024.1
20260509104219 12 110 0.0 0.0 0.00 0.00 0.00 86 1024.1
20260509103642 12 110 0.0 0.0 0.00 0.00 0.00 86 1024.1
20260509103358 12 110 0.0 0.0 0.00 0.00 0.00 85 1024.1
20260509102623 12 110 0.0 0.0 0.00 0.00 0.00 85 1024.0
20260509102120 12 110 0.0 0.0 0.00 0.00 0.00 85 1024.0
20260509101602 12 110 0.0 0.0 0.00 0.00 0.00 84 1023.9
20260509101052 13 110 0.0 0.0 0.00 0.00 0.00 83 1023.8
20260509100806 12 110 0.0 0.0 0.00 0.00 0.00 84 1023.8
20260509100000 12 110 0.0 0.0 0.00 0.00 0.00 84 1023.7
20260509095450 12 110 0.0 0.0 0.00 0.00 0.00 84 1023.7
20260509094921 12 110 0.0 0.0 0.00 0.00 0.00 84 1023.7
20260509094348 12 110 0.0 0.0 0.00 0.00 0.00 83 1023.7
20260509094107 13 110 0.0 0.0 0.00 0.00 0.00 83 1023.6
20260509093338 13 110 0.0 0.0 0.00 0.00 0.00 82 1023.6
20260509092826 13 110 0.0 0.0 0.00 0.00 0.00 82 1023.5
20260509092541 13 110 0.0 0.0 0.00 0.00 0.00 82 1023.6
20260509091808 13 110 0.0 0.0 0.00 0.00 0.00 81 1023.5
20260509091531 13 110 0.0 0.0 0.00 0.00 0.00 80 1023.5
20260509090744 13 110 0.0 0.0 0.00 0.00 0.00 79 1023.5
20260509090245 14 110 0.0 0.0 0.00 0.00 0.00 79 1023.4
20260509085738 14 110 0.0 0.0 0.00 0.00 0.00 78 1023.4
20260509085228 14 110 0.0 0.0 0.00 0.00 0.00 79 1023.3
20260509084704 14 110 0.0 0.0 0.00 0.00 0.00 78 1023.2
20260509084201 14 110 0.0 0.0 0.00 0.00 0.00 77 1023.2
20260509083658 15 110 0.0 0.0 0.00 0.00 0.00 77 1023.1
20260509083149 14 110 0.0 0.0 0.00 0.00 0.00 77 1023.0
20260509082638 15 110 0.0 0.0 0.00 0.00 0.00 76 1023.0
20260509082135 15 110 0.0 0.0 0.00 0.00 0.00 75 1022.9
20260509081632 15 110 0.0 0.0 0.00 0.00 0.00 74 1022.9
20260509081056 15 110 0.0 0.0 0.00 0.00 0.00 73 1022.8
20260509080546 15 110 0.0 0.0 0.00 0.00 0.00 73 1022.7
20260509080036 16 110 0.0 0.0 0.00 0.00 0.00 72 1022.7
20260509075538 16 110 0.0 0.0 0.00 0.00 0.00 71 1022.7
20260509075033 16 110 0.0 1.6 0.00 0.00 0.00 70 1022.6
20260509074529 16 110 0.0 1.6 0.00 0.00 0.00 70 1022.5
20260509074225 16 71 0.0 1.6 0.00 0.00 0.00 69 1022.4
20260509073729 16 71 0.0 0.0 0.00 0.00 0.00 68 1022.4
20260509072944 17 71 0.0 0.0 0.00 0.00 0.00 67 1022.3
20260509072703 17 71 0.0 1.6 0.00 0.00 0.00 66 1022.3
20260509071932 17 71 0.0 6.4 0.00 0.00 0.00 66 1022.3
20260509071422 17 71 1.6 8.0 0.00 0.00 0.00 65 1022.2
20260509070913 17 64 1.6 8.0 0.00 0.00 0.00 64 1022.2
20260509070406 17 64 0.0 6.4 0.00 0.00 0.00 64 1022.1
20260509065855 18 61 0.0 6.4 0.00 0.00 0.00 64 1022.1
20260509065345 18 61 0.0 6.4 0.00 0.00 0.00 63 1022.0
20260509064837 18 60 0.0 6.4 0.00 0.00 0.00 63 1021.9
20260509064332 18 59 0.0 6.4 0.00 0.00 0.00 63 1021.8
20260509063816 18 57 0.0 6.4 0.00 0.00 0.00 62 1021.9
20260509063520 18 57 0.0 6.4 0.00 0.00 0.00 61 1021.8
20260509063008 18 55 0.0 8.0 0.00 0.00 0.00 61 1021.7
20260509062233 18 104 0.0 8.0 0.00 0.00 0.00 60 1021.6
20260509061716 18 106 1.6 8.0 0.00 0.00 0.00 60 1021.6
20260509061212 18 113 1.6 8.0 0.00 0.00 0.00 59 1021.5
20260509060649 19 102 1.6 8.0 0.00 0.00 0.00 59 1021.5
20260509060139 19 100 1.6 9.7 0.00 0.00 0.00 59 1021.4
20260509055641 19 103 1.6 9.7 0.00 0.00 0.00 58 1021.4
20260509055136 19 105 1.6 11.3 0.00 0.00 0.00 58 1021.4
20260509054855 19 105 1.6 11.3 0.00 0.00 0.00 57 1021.4
20260509054349 19 79 1.6 9.7 0.00 0.00 0.00 57 1021.3
20260509053603 20 77 1.6 9.7 0.00 0.00 0.00 57 1021.3
20260509053106 20 86 0.0 8.0 0.00 0.00 0.00 56 1021.2
20260509052826 20 84 0.0 8.0 0.00 0.00 0.00 56 1021.1
20260509052104 20 72 0.0 8.0 0.00 0.00 0.00 56 1021.1
20260509051604 20 77 0.0 9.7 0.00 0.00 0.00 56 1021.1
20260509051053 20 77 1.6 9.7 0.00 0.00 0.00 55 1021.1
20260509050543 20 65 1.6 8.0 0.00 0.00 0.00 54 1021.0
20260509050042 20 135 0.0 8.0 0.00 0.00 0.00 54 1021.0
20260509045532 20 123 0.0 4.8 0.00 0.00 0.00 50 1021.1
20260509045021 20 40 0.0 0.0 0.00 0.00 0.00 47 1021.0
20260509044512 20 40 0.0 6.4 0.00 0.00 0.00 48 1021.0
20260509044229 20 40 0.0 6.4 0.00 0.00 0.00 48 1021.0
20260509043457 20 40 0.0 1.6 0.00 0.00 0.00 48 1021.0
20260509042946 20 40 0.0 4.8 0.00 0.00 0.00 49 1021.1
20260509042437 20 40 0.0 4.8 0.00 0.00 0.00 48 1021.0
20260509041929 20 40 0.0 3.2 0.00 0.00 0.00 49 1021.1
20260509041425 20 38 0.0 3.2 0.00 0.00 0.00 49 1021.1
20260509040917 20 38 0.0 9.7 0.00 0.00 0.00 48 1021.2
20260509040403 20 38 0.0 9.7 0.00 0.00 0.00 49 1021.2
20260509035854 20 38 0.0 0.0 0.00 0.00 0.00 48 1021.2
20260509035343 20 38 0.0 0.0 0.00 0.00 0.00 48 1021.2
20260509035106 20 38 0.0 4.8 0.00 0.00 0.00 48 1021.1
20260509034331 20 38 0.0 4.8 0.00 0.00 0.00 49 1021.1
20260509033821 21 38 0.0 1.6 0.00 0.00 0.00 48 1021.2
20260509033321 21 38 0.0 3.2 0.00 0.00 0.00 48 1021.1
20260509033025 21 38 0.0 3.2 0.00 0.00 0.00 48 1021.2
20260509032255 21 38 0.0 0.0 0.00 0.00 0.00 48 1021.3
20260509031751 21 38 0.0 0.0 0.00 0.00 0.00 48 1021.3
20260509031725 20 38 0.0 3.2 0.00 0.00 0.00 49 1021.4
20260509030733 20 38 0.0 3.2 0.00 0.00 0.00 49 1021.5
20260509030455 20 56 0.0 0.0 0.00 0.00 0.00 48 1021.5
20260509025950 20 56 0.0 0.0 0.00 0.00 0.00 49 1021.6
20260509025227 20 56 0.0 1.6 0.00 0.00 0.00 49 1021.7
20260509024715 20 56 0.0 1.6 0.00 0.00 0.00 49 1021.7
20260509024155 20 56 0.0 3.2 0.00 0.00 0.00 52 1021.9
20260509023910 20 56 0.0 3.2 0.00 0.00 0.00 51 1022.0
20260509023135 20 56 0.0 8.0 0.00 0.00 0.00 50 1022.1